Weather Roundup
Issued by NWS Springfield, MO

Home | Current Version | Previous Version | Text Only | Print | Product List | Glossary On
Versions: 1 2 3 4 5 6 7 8 9 10 11 12 13 14 15 16 17 18 19 20 21 22 23 24 25 26 27 28 29 30 31 32 33 34 35 36 37 38 39 40 41 42 43 44 45 46 47 48 49 50
000
NZUS99 KSGF 242057
HRRSGF

HOURLY WEATHER
NATIONAL WEATHER SERVICE SPRINGFIELD MO
300 PM CST TUE JAN 24 2017

......SGF CWA......

CITY           SKY/WX    TMP DP  RH WIND       PRES   REMARKS
SPRINGFIELD    SUNNY     65  39  38 S21G29    29.51F
JOPLIN         SUNNY     70  38  31 S25G31    29.46F
WEST PLAINS    SUNNY     57  38  48 SE17G25   29.67F
ROLLA          CLOUDY    54  36  50 SE18G25   29.60F
BRANSON        MOSUNNY   66  36  32 S21G26    29.57F

......SURROUNDING SGF CWA......

CITY           SKY/WX    TMP DP  RH WIND       PRES   REMARKS
CHANUTE        SUNNY     67  41  38 S18G29    29.40F
PARSONS        SUNNY     68  40  35 S15G29    29.42F
COFFEYVILLE    SUNNY     70  40  33 S21G26    29.42F
EMPORIA        SUNNY     68  36  30 S24G30    29.34S
HARRISON AR    SUNNY     66  36  32 S21G30    29.60F

......KANSAS AND MISSOURI......

CITY           SKY/WX    TMP DP  RH WIND       PRES   REMARKS
KANSAS CTY INT MOSUNNY   48  36  63 E20       29.43F
SEDALIA        MOSUNNY   55  40  56 SE15G25   29.52F
ST JOSEPH      MOSUNNY   46  37  71 E10G22    29.46F
ST LOUIS       CLOUDY    52  34  50 SE20      29.73F
WICHITA        MOSUNNY   67  40  37 W16       29.37S
TOPEKA         SUNNY     55  39  54 E12       29.41S
OLATHE         SUNNY     53  39  59 SE16G26   29.42F

......TENNESSEE......

CITY           SKY/WX    TMP DP  RH WIND       PRES   REMARKS
MEMPHIS        NOT AVBL
NASHVILLE      SUNNY     56  34  43 VRB3      29.87F

......ARKANSAS.......

CITY           SKY/WX    TMP DP  RH WIND       PRES   REMARKS
FAYETTEVILLE   SUNNY     65  39  38 S22G28    29.56F
FT SMITH       SUNNY     74  39  28 S18G25    29.58F
LITTLE ROCK    MOSUNNY   65  47  52 SE16      29.70F

......OKLAHOMA.......

CITY           SKY/WX    TMP DP  RH WIND       PRES   REMARKS
TULSA          PTSUNNY   72  37  28 S17G29    29.47F
PONCA CITY     SUNNY     73  35  25 SW25G37   29.40S
MCALESTER      MOSUNNY   77  40  26 S13G24    29.55F
OKLAHOMA CITY  MOSUNNY   74  32  21 SW28G33   29.48F

......IOWA............

CITY           SKY/WX    TMP DP  RH WIND       PRES   REMARKS
DES MOINES     NOT AVBL
QUAD CITIES    CLOUDY    37  32  82 SE9       29.79F WCI  30

......ILLINOIS........

CITY           SKY/WX    TMP DP  RH WIND       PRES   REMARKS
QUINCY         NOT AVBL
CHICAGO        CLOUDY    36  31  82 S5        29.85R WCI  32



USA.gov is the U.S. government's official web portal to all federal, state and local government web resources and services.